Home > Weather > Ellwangen (Jagst) > Past weeks

Flag for Germany Past Weather in Ellwangen (Jagst), Baden-Württemberg, Germany — Yesterday and Last 2 Weeks

Now
75 °F

Scattered showers. Broken clouds.


Feels Like: 77 °F
Forecast: 60 / 77 °F
Wind: 9 mph from West

Location: Niederstetten

Current Time: Jul 25, 2016 at 2:08:26 PM

Latest Report: Jul 25, 2016 at 1:20 PM


Visibility: 5 mi

Pressure: 30.09 "Hg

Humidity: 65%

Dew Point: 63 °F

Location of Ellwangen (Jagst)Location

Past Weather in Ellwangen (Jagst) — Graph

°F

Ellwangen (Jagst) Temperature Yesterday

Maximum temperature yesterday: 75 °F (at 3:20 PM)
Minimum temperature yesterday: 63 °F (at 4:20 AM)
Average temperature yesterday: 68 °F

High & Low Weather Summary for the Past Weeks

 TemperatureHumidityPressure
High88 °F (Jul 20, 3:20 PM)100% (Jul 22, 12:20 AM)30.33 "Hg (Jul 22, 12:20 AM)
Low48 °F (Jul 15, 6:20 AM)29% (Jul 20, 4:20 PM)29.89 "Hg (Jul 10, 8:20 PM)
Average67 °F70%30.09 "Hg
* Reported Jul 10 12:20 PM — Jul 25 12:20 PM, Ellwangen (Jagst), Weather by CustomWeather, © 2016

Note: Actual official high and low records may vary slightly from our data, if they occured in-between our weather recording intervals... More about our weather records

Advertising

Ellwangen (Jagst) Weather History for the Previous 24 Hours

Scroll right to see more
 ConditionsComfort  
Time TempWeatherWind HumidityBarometerVisibility
12:20 PM
Mon, Jul 25
73 °FPartly sunny.9 mph69%30.09 "HgN/A
11:20 AM73 °FBroken clouds.7 mph69%30.12 "HgN/A
10:20 AM70 °FBroken clouds.8 mph83%30.12 "HgN/A
9:20 AM72 °FBroken clouds.7 mph78%30.12 "HgN/A
8:20 AM66 °FFog.6 mph94%30.12 "Hg3 mi
7:20 AM64 °FFog.5 mph94%30.09 "Hg2 mi
6:20 AM63 °FFog.3 mph100%30.09 "Hg2 mi
5:20 AM63 °FFog.5 mph100%30.09 "Hg2 mi
4:20 AM63 °FFog.2 mph100%30.09 "Hg2 mi
3:20 AM63 °FFog.2 mph100%30.09 "Hg4 mi
2:20 AM63 °FFog.2 mph94%30.12 "Hg6 mi
1:20 AM66 °FFog.3 mph88%30.12 "HgN/A
12:20 AM64 °FPassing clouds.2 mph94%30.12 "HgN/A
11:20 PM
Sun, Jul 24
68 °FPassing clouds.3 mph83%30.12 "HgN/A
10:20 PM66 °FPassing clouds.2 mph94%30.12 "HgN/A
9:20 PM68 °FPassing clouds.No wind88%30.09 "HgN/A
8:20 PM72 °FScattered clouds.2 mph78%30.09 "HgN/A
7:20 PM72 °FPartly sunny.3 mph73%30.09 "HgN/A
6:20 PM73 °FScattered clouds.5 mph69%30.09 "HgN/A
5:20 PM75 °FPartly sunny.8 mph65%30.09 "HgN/A
4:20 PM75 °FPartly sunny.9 mph69%30.09 "HgN/A
3:20 PM75 °FPartly sunny.7 mph65%30.09 "HgN/A
2:20 PM73 °FBroken clouds.6 mph69%30.12 "HgN/A
Weather by CustomWeather, © 2016

See weather overviewHow to use our weather pages